"Pseudo-MPEC" for P11ZtBp

Created 2024 Oct 3 8:22:15 UT using Find_Orb

Click here for an explanation of pseudo-MPECs

 
 Astrometry: 
     P11ZtBp* C2024 09 28.49381805 00 02.898+17 41 20.74   ~9SE7 21.90wXNEOCPF51
     P11ZtBp  C2024 09 28.50642005 00 02.888+17 41 27.77   ~9SE7 21.89wXNEOCPF51
     P11ZtBp  C2024 09 28.51919005 00 02.854+17 41 35.36   ~9SE7 21.76wXNEOCPF51
     P11ZtBp  C2024 09 28.58297205 00 02.761+17 42 12.09   ~9SKb 21.83GVNEOCPF51
     P11ZtBp  C2024 09 28.58361605 00 02.756+17 42 12.45   ~9SKb 21.82GVNEOCPF51
     P11ZtBp KC2024 10 01.41542204 59 54.589+18 09 26.42   ~A1B7 21.92GVNEOCPV06
     P11ZtBp KC2024 10 01.42085804 59 54.539+18 09 29.63   ~A1B7 21.51GVNEOCPV06
     P11ZtBp KC2024 10 01.42629504 59 54.496+18 09 32.72   ~A1B7 21.67GVNEOCPV06
     P11ZtBp KC2024 10 01.43173104 59 54.452+18 09 36.00   ~A1B7 21.31GVNEOCPV06

Station data:
(F51) Pan-STARRS 1, Haleakala  (N20.707234 W156.255910)  US/Hawaii.
   Observers J. Bulger, T. Lowe, A. Schultz, M. Willman. Measurers K.
   Chambers, S. Chastel, T. de Boer, L. Denneau, J. Fairlamb, H. Flewelling,
   M. Huber, C.-C. Lin, E. Magnier, Y. Ramanjooloo, R. Wainscoat, R. Weryk.
   1.8-m Ritchey-Chrétien + CCD.
(V06) Catalina Sky Survey-Kuiper  (N32.416871 W110.732550)  US/Arizona.
   Observers T. A. Pruyne, B. M. Africano, E. J. Christensen, G. A. Farneth,
   D. C. Fuls, A. R. Gibbs, A. D. Grauer, H. Gröller, J. A. Johnson, R. A.
   Kowalski, S. M. Larson, G. J. Leonard, D. Rankin, R. L. Seaman, F. C.
   Shelly, K. W. Wierzchoś. 1.55-m reflector + CCD.

Orbital elements:  P11ZtBp
   Perihelion 2024 Apr 3.09305 +/- 246 TT =  2:13:59 (JD 2460403.59305)
Epoch 2024 Oct  1.0 TT = JDT 2460584.5                           AutoNEOCP
M  18.26869291 +/- 80               (J2000 ecliptic)
n   0.10098391 +/- 0.156            Peri.  276.80185 +/- 70
a   4.56703746 +/- 4.69             Node    59.15940 +/- 4.7
e   0.6184028 +/- 0.156             Incl.   32.66964 +/- 12
P   9.76005                H 17.44  G  0.15   U 11.5  SR
q 1.74276848 +/- 0.778    Q 7.39130643 +/- 2.77
From 9 observations 2024 Sept. 28-Oct. 1; mean residual 0".09
Residuals in arcseconds: 
240928 F51  .04-  .17+    240928 F51  .11+  .06-    241001 V06  .00   .03+    
240928 F51  .05+  .11-    240928 F51  .05+  .07-    241001 V06  .05-  .05-    
240928 F51  .17-  .07+    241001 V06  .14+  .01-    241001 V06  .11-  .06+    

Ephemerides (geocentric):
Date (UTC) HH   RA             Dec           delta  r     elong  mag " sig PA
---- --------  ------------   ------------  ------ ------ -----  --- --------
2024 10 03 08  04 59 39.857   +18 28 03.82  1.8928 2.4811 114.5 21.8 44.1  87
2024 10 03 09  04 59 39.458   +18 28 28.14  1.8926 2.4814 114.6 21.8 45.5  87
2024 10 03 10  04 59 39.056   +18 28 52.47  1.8923 2.4817 114.6 21.8 46.8  87
2024 10 03 11  04 59 38.650   +18 29 16.81  1.8920 2.4819 114.6 21.8 48.2  87
2024 10 03 12  04 59 38.240   +18 29 41.14  1.8918 2.4822 114.7 21.8 49.6  87
2024 10 03 13  04 59 37.827   +18 30 05.48  1.8915 2.4824 114.7 21.8 51.0  87
2024 10 03 14  04 59 37.411   +18 30 29.83  1.8913 2.4827 114.8 21.8 52.5  87
2024 10 03 15  04 59 36.991   +18 30 54.17  1.8910 2.4829 114.8 21.8 53.9  87
2024 10 03 16  04 59 36.567   +18 31 18.52  1.8907 2.4832 114.9 21.8 55.4  87
2024 10 03 17  04 59 36.140   +18 31 42.88  1.8905 2.4835 114.9 21.8 56.9  87
2024 10 03 18  04 59 35.710   +18 32 07.23  1.8902 2.4837 114.9 21.8 58.4  87
2024 10 03 19  04 59 35.276   +18 32 31.59  1.8900 2.4840 115.0 21.8 59.9  87
2024 10 03 20  04 59 34.838   +18 32 55.95  1.8897 2.4842 115.0 21.8 61.5  87
2024 10 03 21  04 59 34.397   +18 33 20.32  1.8894 2.4845 115.1 21.8 63.0  87
2024 10 03 22  04 59 33.953   +18 33 44.69  1.8892 2.4847 115.1 21.8 64.6  87
2024 10 03 23  04 59 33.505   +18 34 09.06  1.8889 2.4850 115.2 21.8 66.2  87
2024 10 04 00  04 59 33.053   +18 34 33.44  1.8887 2.4853 115.2 21.8 67.8  87
2024 10 04 01  04 59 32.598   +18 34 57.82  1.8884 2.4855 115.2 21.8 69.4  87
2024 10 04 02  04 59 32.140   +18 35 22.20  1.8881 2.4858 115.3 21.8 71.1  87
2024 10 04 03  04 59 31.678   +18 35 46.59  1.8879 2.4860 115.3 21.8 72.8  87
2024 10 04 04  04 59 31.212   +18 36 10.98  1.8876 2.4863 115.4 21.8 74.4  87
2024 10 04 05  04 59 30.743   +18 36 35.37  1.8874 2.4865 115.4 21.8 76.1  87
2024 10 04 06  04 59 30.271   +18 36 59.76  1.8871 2.4868 115.5 21.8 77.9  87
2024 10 04 07  04 59 29.795   +18 37 24.16  1.8869 2.4871 115.5 21.8 79.6  87
2024 10 04 08  04 59 29.315   +18 37 48.57  1.8866 2.4873 115.5 21.8 81.4  87
2024 10 04 09  04 59 28.832   +18 38 12.97  1.8863 2.4876 115.6 21.8 83.1  87
2024 10 04 10  04 59 28.346   +18 38 37.38  1.8861 2.4878 115.6 21.8 84.9  87
2024 10 04 11  04 59 27.855   +18 39 01.79  1.8858 2.4881 115.7 21.8 86.7  87
2024 10 04 12  04 59 27.362   +18 39 26.21  1.8856 2.4884 115.7 21.8 88.6  87
2024 10 04 13  04 59 26.865   +18 39 50.63  1.8853 2.4886 115.7 21.8 90.4  87
2024 10 04 14  04 59 26.364   +18 40 15.05  1.8851 2.4889 115.8 21.8 92.3  87
2024 10 04 15  04 59 25.860   +18 40 39.47  1.8848 2.4891 115.8 21.8 94.2  87
2024 10 04 16  04 59 25.353   +18 41 03.90  1.8846 2.4894 115.9 21.8 96.1  87
2024 10 04 17  04 59 24.841   +18 41 28.33  1.8843 2.4896 115.9 21.8 98.0  87
2024 10 04 18  04 59 24.327   +18 41 52.77  1.8840 2.4899 116.0 21.8  100  87
2024 10 04 19  04 59 23.809   +18 42 17.20  1.8838 2.4902 116.0 21.8  102  87
2024 10 04 20  04 59 23.287   +18 42 41.64  1.8835 2.4904 116.0 21.8  104  87
2024 10 04 21  04 59 22.762   +18 43 06.09  1.8833 2.4907 116.1 21.8  106  87
2024 10 04 22  04 59 22.233   +18 43 30.54  1.8830 2.4909 116.1 21.8  108  87
2024 10 04 23  04 59 21.701   +18 43 54.99  1.8828 2.4912 116.2 21.8  110  87
2024 10 05 00  04 59 21.165   +18 44 19.44  1.8825 2.4914 116.2 21.8  112  87
2024 10 05 01  04 59 20.626   +18 44 43.90  1.8823 2.4917 116.3 21.8  114  87
2024 10 05 02  04 59 20.083   +18 45 08.36  1.8820 2.4920 116.3 21.8  116  87
2024 10 05 03  04 59 19.537   +18 45 32.82  1.8817 2.4922 116.3 21.8  118  87
2024 10 05 04  04 59 18.987   +18 45 57.29  1.8815 2.4925 116.4 21.8  120  87
2024 10 05 05  04 59 18.434   +18 46 21.76  1.8812 2.4927 116.4 21.8  122  87
2024 10 05 06  04 59 17.877   +18 46 46.23  1.8810 2.4930 116.5 21.8  125  87
2024 10 05 07  04 59 17.317   +18 47 10.71  1.8807 2.4933 116.5 21.8  127  87